| time (UTC) | temp F | wind direction | speed MPH | gust MPH | rain 1hr in | rain 24hr in | rain mn in | humidity % | barometer mb |
| 20260508185516 | 59 | 276 | 3.0 | 7.0 | 0.00 | 0.00 | 0.00 | 43 | 1008.8 |
| 20260508184521 | 58 | 294 | 3.0 | 7.0 | 0.00 | 0.00 | 0.00 | 42 | 1008.9 |
| 20260508183521 | 58 | 283 | 4.0 | 11.0 | 0.00 | 0.00 | 0.00 | 42 | 1009.0 |
| 20260508182519 | 59 | 267 | 4.0 | 11.0 | 0.00 | 0.00 | 0.00 | 42 | 1008.9 |
| 20260508181557 | 59 | 286 | 4.0 | 7.0 | 0.00 | 0.00 | 0.00 | 42 | 1008.8 |
| 20260508180537 | 58 | 264 | 4.0 | 9.0 | 0.00 | 0.00 | 0.00 | 44 | 1008.8 |
| 20260508175520 | 58 | 299 | 4.0 | 7.0 | 0.00 | 0.00 | 0.00 | 44 | 1009.0 |
| 20260508174517 | 58 | 259 | 4.0 | 11.0 | 0.00 | 0.00 | 0.00 | 44 | 1009.0 |
| 20260508173517 | 57 | 286 | 3.0 | 6.0 | 0.00 | 0.00 | 0.00 | 45 | 1009.1 |
| 20260508172517 | 58 | 287 | 2.0 | 6.0 | 0.00 | 0.00 | 0.00 | 45 | 1009.0 |
| 20260508171521 | 58 | 264 | 3.0 | 8.0 | 0.00 | 0.00 | 0.00 | 46 | 1009.1 |
| 20260508170519 | 58 | 287 | 4.0 | 9.0 | 0.00 | 0.00 | 0.00 | 45 | 1009.1 |
| 20260508165519 | 58 | 261 | 4.0 | 8.0 | 0.00 | 0.00 | 0.00 | 45 | 1009.0 |
| 20260508164517 | 58 | 276 | 4.0 | 8.0 | 0.00 | 0.00 | 0.00 | 45 | 1009.1 |
| 20260508163519 | 59 | 296 | 4.0 | 9.0 | 0.00 | 0.00 | 0.00 | 44 | 1009.0 |
| 20260508162518 | 59 | 259 | 4.0 | 11.0 | 0.00 | 0.00 | 0.00 | 44 | 1008.9 |
| 20260508161518 | 59 | 309 | 4.0 | 8.0 | 0.00 | 0.00 | 0.00 | 44 | 1008.9 |
| 20260508160519 | 59 | 271 | 2.0 | 5.0 | 0.00 | 0.00 | 0.00 | 45 | 1009.1 |
| 20260508155538 | 58 | 247 | 3.0 | 9.0 | 0.00 | 0.00 | 0.00 | 45 | 1009.1 |
| 20260508154519 | 57 | 267 | 4.0 | 8.0 | 0.00 | 0.00 | 0.00 | 45 | 1009.4 |
| 20260508153518 | 58 | 273 | 3.0 | 7.0 | 0.00 | 0.00 | 0.00 | 45 | 1009.5 |
| 20260508152519 | 58 | 282 | 3.0 | 9.0 | 0.00 | 0.00 | 0.00 | 46 | 1009.4 |
| 20260508151539 | 57 | 275 | 4.0 | 7.0 | 0.00 | 0.00 | 0.00 | 46 | 1009.5 |
| 20260508150516 | 58 | 254 | 3.0 | 8.0 | 0.00 | 0.00 | 0.00 | 45 | 1009.5 |
| 20260508145521 | 57 | 318 | 3.0 | 7.0 | 0.00 | 0.00 | 0.00 | 46 | 1009.5 |
| 20260508144519 | 56 | 320 | 2.0 | 6.0 | 0.00 | 0.00 | 0.00 | 47 | 1009.7 |
| 20260508143523 | 55 | 272 | 3.0 | 8.0 | 0.00 | 0.00 | 0.00 | 46 | 1009.7 |
| 20260508142517 | 56 | 301 | 3.0 | 6.0 | 0.00 | 0.00 | 0.00 | 46 | 1009.7 |
| 20260508141537 | 56 | 349 | 3.0 | 6.0 | 0.00 | 0.00 | 0.00 | 45 | 1009.7 |
| 20260508140521 | 56 | 293 | 3.0 | 9.0 | 0.00 | 0.00 | 0.00 | 46 | 1009.8 |
| 20260508135521 | 56 | 251 | 3.0 | 9.0 | 0.00 | 0.00 | 0.00 | 46 | 1009.9 |
| 20260508134537 | 55 | 292 | 3.0 | 6.0 | 0.00 | 0.00 | 0.00 | 46 | 1010.0 |
| 20260508133539 | 55 | 278 | 3.0 | 7.0 | 0.00 | 0.00 | 0.00 | 48 | 1010.1 |
| 20260508132521 | 54 | 287 | 3.0 | 6.0 | 0.00 | 0.00 | 0.00 | 48 | 1010.2 |
| 20260508131519 | 53 | 310 | 4.0 | 8.0 | 0.00 | 0.00 | 0.00 | 49 | 1010.2 |
| 20260508130518 | 53 | 269 | 3.0 | 8.0 | 0.00 | 0.00 | 0.00 | 51 | 1010.3 |
| 20260508125518 | 52 | 277 | 2.0 | 6.0 | 0.00 | 0.00 | 0.00 | 53 | 1010.3 |
| 20260508124538 | 52 | 294 | 2.0 | 4.0 | 0.00 | 0.00 | 0.00 | 55 | 1010.3 |
| 20260508123519 | 51 | 279 | 2.0 | 6.0 | 0.00 | 0.00 | 0.00 | 54 | 1010.3 |
| 20260508122518 | 51 | 292 | 2.0 | 5.0 | 0.00 | 0.00 | 0.00 | 56 | 1010.3 |
| 20260508121518 | 50 | 261 | 2.0 | 6.0 | 0.00 | 0.00 | 0.00 | 59 | 1010.4 |
| 20260508120516 | 49 | 319 | 1.0 | 3.0 | 0.00 | 0.00 | 0.00 | 62 | 1010.3 |
| 20260508115518 | 48 | 326 | 1.0 | 4.0 | 0.00 | 0.00 | 0.00 | 63 | 1010.3 |
| 20260508114519 | 47 | 317 | 1.0 | 2.0 | 0.00 | 0.00 | 0.00 | 64 | 1010.3 |
| 20260508113518 | 46 | 328 | 1.0 | 3.0 | 0.00 | 0.00 | 0.00 | 67 | 1010.2 |
| 20260508112519 | 44 | 299 | 2.0 | 4.0 | 0.00 | 0.00 | 0.00 | 69 | 1010.0 |
| 20260508111516 | 43 | 299 | 1.0 | 3.0 | 0.00 | 0.00 | 0.00 | 72 | 1010.0 |
| 20260508110521 | 42 | 72 | 0.0 | 2.0 | 0.00 | 0.00 | 0.00 | 79 | 1010.0 |
| 20260508105519 | 41 | 317 | 1.0 | 2.0 | 0.00 | 0.00 | 0.00 | 81 | 1009.9 |
| 20260508104517 | 39 | 316 | 1.0 | 3.0 | 0.00 | 0.00 | 0.00 | 84 | 1009.8 |
| 20260508103518 | 39 | 334 | 0.0 | 1.0 | 0.00 | 0.00 | 0.00 | 83 | 1009.7 |
| 20260508102516 | 39 | 14 | 0.0 | 2.0 | 0.00 | 0.00 | 0.00 | 83 | 1009.6 |
| 20260508101541 | 39 | 351 | 0.0 | 2.0 | 0.00 | 0.00 | 0.00 | 84 | 1009.4 |
| 20260508100517 | 38 | 342 | 0.0 | 1.0 | 0.00 | 0.00 | 0.00 | 87 | 1009.3 |
| 20260508095559 | 38 | 347 | 0.0 | 1.0 | 0.00 | 0.00 | 0.00 | 88 | 1009.2 |
| 20260508094540 | 38 | 340 | 0.0 | 1.0 | 0.00 | 0.00 | 0.00 | 89 | 1009.2 |
| 20260508093522 | 37 | 352 | 0.0 | 1.0 | 0.00 | 0.00 | 0.00 | 90 | 1009.2 |
| 20260508092538 | 37 | 15 | 0.0 | 1.0 | 0.00 | 0.01 | 0.00 | 89 | 1009.1 |
| 20260508091518 | 37 | 42 | 0.0 | 2.0 | 0.00 | 0.01 | 0.00 | 90 | 1009.1 |
| 20260508090517 | 36 | 100 | 0.0 | 0.0 | 0.00 | 0.01 | 0.00 | 91 | 1009.0 |
| 20260508085517 | 36 | 79 | 0.0 | 1.0 | 0.00 | 0.01 | 0.00 | 92 | 1009.1 |
| 20260508084517 | 36 | 0.0 | 0.0 | 0.00 | 0.01 | 0.00 | 94 | 1009.1 | |
| 20260508083520 | 35 | 68 | 0.0 | 1.0 | 0.00 | 0.01 | 0.00 | 94 | 1009.2 |
| 20260508082518 | 35 | 29 | 0.0 | 1.0 | 0.00 | 0.01 | 0.00 | 93 | 1009.0 |
| 20260508081519 | 36 | 35 | 0.0 | 1.0 | 0.00 | 0.01 | 0.00 | 91 | 1008.8 |
| 20260508080518 | 36 | 6 | 0.0 | 0.0 | 0.00 | 0.01 | 0.00 | 90 | 1008.8 |
| 20260508075518 | 36 | 159 | 0.0 | 1.0 | 0.00 | 0.01 | 0.00 | 89 | 1008.5 |
| 20260508074518 | 36 | 356 | 0.0 | 1.0 | 0.00 | 0.01 | 0.00 | 88 | 1008.3 |
| 20260508073518 | 37 | 1 | 0.0 | 1.0 | 0.00 | 0.03 | 0.00 | 86 | 1008.3 |
| 20260508072538 | 38 | 41 | 0.0 | 1.0 | 0.00 | 0.04 | 0.00 | 83 | 1008.0 |
| 20260508071518 | 39 | 20 | 0.0 | 1.0 | 0.00 | 0.04 | 0.00 | 82 | 1008.0 |
| 20260508070519 | 39 | 82 | 0.0 | 1.0 | 0.00 | 0.04 | 0.00 | 80 | 1007.9 |
| 20260508065519 | 39 | 66 | 0.0 | 1.0 | 0.00 | 0.04 | 0.00 | 80 | 1008.0 |
| 20260508064539 | 40 | 28 | 0.0 | 1.0 | 0.00 | 0.04 | 0.00 | 78 | 1008.1 |
| 20260508063516 | 40 | 100 | 0.0 | 0.0 | 0.00 | 0.04 | 0.00 | 76 | 1008.1 |
| 20260508062522 | 41 | 28 | 0.0 | 1.0 | 0.00 | 0.04 | 0.00 | 74 | 1008.0 |
| 20260508061522 | 42 | 80 | 0.0 | 1.0 | 0.00 | 0.04 | 0.00 | 72 | 1008.0 |
| 20260508060517 | 43 | 53 | 0.0 | 2.0 | 0.00 | 0.04 | 0.00 | 68 | 1008.0 |
| 20260508055518 | 43 | 44 | 1.0 | 2.0 | 0.00 | 0.04 | 0.00 | 68 | 1008.2 |
| 20260508054520 | 44 | 34 | 1.0 | 2.0 | 0.00 | 0.04 | 0.00 | 69 | 1008.2 |
| 20260508053520 | 44 | 25 | 0.0 | 1.0 | 0.00 | 0.04 | 0.00 | 69 | 1008.3 |
| 20260508052517 | 44 | 20 | 0.0 | 1.0 | 0.00 | 0.04 | 0.00 | 68 | 1008.3 |
| 20260508051517 | 45 | 8 | 0.0 | 1.0 | 0.00 | 0.04 | 0.00 | 66 | 1008.4 |
| 20260508050522 | 46 | 26 | 0.0 | 1.0 | 0.00 | 0.04 | 0.00 | 65 | 1008.5 |
| 20260508045538 | 46 | 332 | 1.0 | 2.0 | 0.00 | 0.04 | 0.00 | 65 | 1008.6 |
| 20260508044518 | 47 | 336 | 1.0 | 2.0 | 0.00 | 0.04 | 0.00 | 63 | 1008.5 |
| 20260508043559 | 47 | 299 | 2.0 | 4.0 | 0.00 | 0.04 | 0.00 | 61 | 1008.5 |
| 20260508042521 | 47 | 301 | 1.0 | 3.0 | 0.00 | 0.04 | 0.00 | 62 | 1008.6 |
| 20260508041518 | 47 | 296 | 1.0 | 3.0 | 0.00 | 0.04 | 0.00 | 63 | 1008.6 |
| 20260508040518 | 47 | 291 | 1.0 | 2.0 | 0.00 | 0.04 | 0.00 | 62 | 1008.7 |
| 20260508035518 | 47 | 323 | 1.0 | 3.0 | 0.00 | 0.04 | 0.04 | 63 | 1008.6 |
| 20260508034518 | 48 | 289 | 0.0 | 2.0 | 0.00 | 0.04 | 0.04 | 61 | 1008.6 |
| 20260508033518 | 48 | 305 | 1.0 | 2.0 | 0.00 | 0.04 | 0.04 | 59 | 1008.6 |
| 20260508032522 | 48 | 276 | 1.0 | 5.0 | 0.00 | 0.04 | 0.04 | 58 | 1008.6 |
| 20260508031539 | 49 | 266 | 1.0 | 3.0 | 0.00 | 0.04 | 0.04 | 58 | 1008.6 |
| 20260508030519 | 50 | 292 | 1.0 | 3.0 | 0.00 | 0.04 | 0.04 | 56 | 1008.5 |
| 20260508025519 | 50 | 287 | 2.0 | 6.0 | 0.00 | 0.04 | 0.04 | 56 | 1008.5 |
| 20260508024519 | 50 | 267 | 1.0 | 6.0 | 0.00 | 0.04 | 0.04 | 55 | 1008.5 |
| 20260508023539 | 50 | 301 | 1.0 | 3.0 | 0.00 | 0.04 | 0.04 | 54 | 1008.5 |
| 20260508022518 | 50 | 307 | 1.0 | 3.0 | 0.00 | 0.04 | 0.04 | 55 | 1008.5 |
| 20260508021519 | 51 | 294 | 1.0 | 4.0 | 0.00 | 0.04 | 0.04 | 53 | 1008.5 |
| 20260508020520 | 51 | 297 | 1.0 | 4.0 | 0.00 | 0.04 | 0.04 | 54 | 1008.6 |
| 20260508015520 | 51 | 300 | 2.0 | 4.0 | 0.00 | 0.04 | 0.04 | 55 | 1008.5 |
| 20260508014519 | 51 | 313 | 1.0 | 3.0 | 0.00 | 0.04 | 0.04 | 54 | 1008.5 |
| 20260508013517 | 52 | 287 | 0.0 | 2.0 | 0.00 | 0.04 | 0.04 | 54 | 1008.3 |
| 20260508012520 | 52 | 300 | 1.0 | 3.0 | 0.00 | 0.04 | 0.04 | 54 | 1008.1 |
| 20260508011517 | 52 | 289 | 1.0 | 3.0 | 0.00 | 0.04 | 0.04 | 54 | 1007.9 |
| 20260508010517 | 52 | 292 | 1.0 | 3.0 | 0.00 | 0.04 | 0.04 | 54 | 1007.9 |
| 20260508005517 | 53 | 292 | 1.0 | 4.0 | 0.00 | 0.04 | 0.04 | 51 | 1007.8 |
| 20260508004522 | 53 | 280 | 2.0 | 4.0 | 0.00 | 0.04 | 0.04 | 50 | 1007.4 |
| 20260508003518 | 54 | 298 | 1.0 | 3.0 | 0.00 | 0.04 | 0.04 | 50 | 1007.3 |
| 20260508002517 | 54 | 285 | 2.0 | 4.0 | 0.00 | 0.04 | 0.04 | 48 | 1007.3 |
| 20260508001518 | 55 | 287 | 2.0 | 8.0 | 0.00 | 0.04 | 0.04 | 48 | 1007.1 |
| 20260508000518 | 55 | 270 | 2.0 | 4.0 | 0.00 | 0.04 | 0.04 | 48 | 1007.1 |
| 20260507235518 | 56 | 277 | 2.0 | 5.0 | 0.00 | 0.04 | 0.04 | 45 | 1007.0 |
| 20260507234519 | 56 | 277 | 2.0 | 5.0 | 0.00 | 0.04 | 0.04 | 44 | 1006.9 |
| 20260507233518 | 57 | 302 | 2.0 | 4.0 | 0.00 | 0.04 | 0.04 | 43 | 1006.7 |
| 20260507232519 | 58 | 281 | 2.0 | 6.0 | 0.00 | 0.04 | 0.04 | 44 | 1006.6 |
| 20260507231519 | 58 | 278 | 2.0 | 5.0 | 0.00 | 0.04 | 0.04 | 43 | 1006.6 |
| 20260507230519 | 59 | 286 | 3.0 | 6.0 | 0.00 | 0.07 | 0.04 | 41 | 1006.5 |
| 20260507225519 | 59 | 278 | 3.0 | 6.0 | 0.00 | 0.08 | 0.04 | 42 | 1006.5 |
| 20260507224519 | 60 | 285 | 2.0 | 6.0 | 0.00 | 0.08 | 0.04 | 42 | 1006.4 |
| 20260507223518 | 60 | 269 | 3.0 | 6.0 | 0.00 | 0.08 | 0.04 | 41 | 1006.3 |
| 20260507222520 | 61 | 247 | 3.0 | 7.0 | 0.00 | 0.08 | 0.04 | 40 | 1006.2 |
| 20260507221521 | 62 | 291 | 2.0 | 5.0 | 0.00 | 0.08 | 0.04 | 39 | 1006.0 |
| 20260507220517 | 62 | 278 | 3.0 | 7.0 | 0.00 | 0.08 | 0.04 | 39 | 1005.9 |
| 20260507215516 | 61 | 246 | 3.0 | 8.0 | 0.00 | 0.08 | 0.04 | 39 | 1005.9 |
| 20260507214520 | 62 | 264 | 4.0 | 9.0 | 0.00 | 0.08 | 0.04 | 39 | 1005.8 |
| 20260507213520 | 61 | 295 | 2.0 | 5.0 | 0.00 | 0.08 | 0.04 | 41 | 1005.7 |
| 20260507212517 | 62 | 285 | 3.0 | 5.0 | 0.00 | 0.08 | 0.04 | 41 | 1005.7 |
| 20260507211537 | 63 | 322 | 3.0 | 5.0 | 0.00 | 0.08 | 0.04 | 39 | 1005.6 |
| 20260507210517 | 63 | 283 | 2.0 | 5.0 | 0.00 | 0.08 | 0.04 | 40 | 1005.5 |
| 20260507205518 | 63 | 265 | 2.0 | 5.0 | 0.00 | 0.08 | 0.04 | 39 | 1005.4 |
| 20260507204517 | 63 | 282 | 4.0 | 8.0 | 0.00 | 0.08 | 0.04 | 39 | 1005.5 |
| 20260507203520 | 63 | 281 | 4.0 | 9.0 | 0.00 | 0.09 | 0.04 | 39 | 1005.5 |
| 20260507202518 | 63 | 319 | 2.0 | 4.0 | 0.00 | 0.09 | 0.04 | 40 | 1005.4 |
| 20260507201518 | 63 | 256 | 4.0 | 11.0 | 0.00 | 0.10 | 0.04 | 40 | 1005.4 |
| 20260507200518 | 63 | 307 | 3.0 | 7.0 | 0.00 | 0.10 | 0.04 | 41 | 1005.5 |
| 20260507195518 | 63 | 298 | 3.0 | 6.0 | 0.00 | 0.11 | 0.04 | 42 | 1005.5 |
| 20260507194519 | 63 | 319 | 2.0 | 6.0 | 0.00 | 0.11 | 0.04 | 42 | 1005.7 |
| 20260507193519 | 63 | 253 | 4.0 | 10.0 | 0.00 | 0.12 | 0.04 | 41 | 1005.9 |
| 20260507192519 | 63 | 292 | 3.0 | 7.0 | 0.00 | 0.13 | 0.04 | 40 | 1005.9 |
| 20260507191519 | 62 | 303 | 4.0 | 7.0 | 0.00 | 0.14 | 0.04 | 41 | 1005.9 |
| 20260507190516 | 62 | 306 | 3.0 | 9.0 | 0.00 | 0.14 | 0.04 | 39 | 1006.1 |